Miscellaneous Local Product
Issued by NWS Hastings, NE

Home | Current Version | Previous Version | Graphics & Text | Print | Product List | Glossary On
Versions: 1 2 3 4 5 6 7 8 9 10 11 12 13 14 15 16 17 18 19 20 21 22 23 24 25 26 27 28 29 30 31 32 33 34 35 36 37 38 39 40 41 42 43 44 45 46 47 48 49 50
000
AXUS43 KGID 271302
MISGRI

GID CWA HOURLY WEATHER ROUNDUP
NATIONAL WEATHER SERVICE HASTINGS NE
800 AM CDT WED MAY 27 2015

NOTE: "FAIR" INDICATES FEW OR NO CLOUDS BELOW 12,000 FEET WITH NO
SIGNIFICANT WEATHER AND/OR OBSTRUCTIONS TO VISIBILITY.

...SOUTH CENTRAL NEBRASKA...

CITY           SKY/WX    TMP DP  RH WIND       PRES   REMARKS
GRAND ISLAND   SUNNY     58  50  75 NW3       30.06F
HASTINGS       SUNNY     58  50  75 SW3       30.08R
KEARNEY        SUNNY     57  48  72 S7        30.09R
ORD            SUNNY     54  50  86 N3        30.05S
YORK           SUNNY     57  52  82 NW6       30.07R
AURORA         SUNNY     59  53  81 NW6       30.07R
LEXINGTON      SUNNY     55  53  93 CALM      30.08S
HOLDREGE       SUNNY     58  50  74 CALM      30.08S
HEBRON         SUNNY     56  52  85 CALM      30.08R

...NEBRASKA PANHANDLE...

CITY           SKY/WX    TMP DP  RH WIND       PRES   REMARKS
CHADRON        MOSUNNY   57  52  83 S5        30.00R
ALLIANCE       PTSUNNY   56  52  86 SE15      30.04R
SCOTTSBLUFF    MOSUNNY   53  51  93 SE9       30.03S
SIDNEY         CLOUDY    53  51  93 SE10      30.07R

...WESTERN AND NORTH CENTRAL NEBRASKA...

CITY           SKY/WX    TMP DP  RH WIND       PRES   REMARKS
VALENTINE      MOSUNNY   54  50  86 CALM      30.05S
AINSWORTH      MOSUNNY   57  51  79 SW5       30.06S
ONEILL         SUNNY     59  51  75 SW3       30.06R
BROKEN BOW     SUNNY     58  51  78 CALM      30.06S
IMPERIAL       PTSUNNY   56  50  80 SE8       30.07R
NORTH PLATTE   MOSUNNY   57  50  77 E3        30.08S
MCCOOK         MOSUNNY   58  51  78 SE5       30.07R

...EASTERN NEBRASKA...

CITY           SKY/WX    TMP DP  RH WIND       PRES   REMARKS
NORFOLK        SUNNY     59  51  75 W6        30.04R
SO SIOUX CITY  SUNNY     59  53  80 CALM      30.01R
TEKAMAH        SUNNY     60  53  77 SW5       30.03R
COLUMBUS         N/A    N/A N/A N/A MISG        N/A
ALBION         SUNNY     55  51  85 CALM      30.06R
OMAHA EPPLEY   SUNNY     60  56  86 S5        30.04R
OFFUTT AFB     SUNNY     60  54  80 SW3       30.03R
MILLARD        SUNNY     60  54  80 CALM      30.04R
LINCOLN        SUNNY     59  52  77 S3        30.06S
NEBRASKA CITY  SUNNY     62  50  64 W7        30.05R
BEATRICE       SUNNY     58  52  80 CALM      30.07R
FALLS CITY     SUNNY     62  54  74 NW3       30.05R

...NORTHERN KANSAS...

CITY           SKY/WX    TMP DP  RH WIND       PRES   REMARKS
GOODLAND       CLOUDY    56  52  86 S8        30.07R
HILL CITY      PTSUNNY   56  53  90 CALM      30.08R
NORTON         SUNNY     57  48  72 NE3       30.07S
PHILLIPSBURG   SUNNY     59  55  88 S6        30.08R FOG
SMITH CENTER   MOSUNNY   55  54  94 NE3       30.08F
HAYS           PTSUNNY   59  50  72 CALM      30.07S
RUSSELL        PTSUNNY   62  56  80 E5        30.06S
CONCORDIA      SUNNY     62  54  74 CALM      30.08R
SALINA         MOSUNNY   64  56  75 CALM      30.08R
TOPEKA         SUNNY     64  58  80 CALM      30.08R



USA.gov is the U.S. government's official web portal to all federal, state and local government web resources and services.